EW0349 Weather Reports


time (UTC)temp
F
wind
direction
speed
knots
gust
knots
rain 1hr
in
rain 24hr
in
rain mn
in
humidity
%
barometer
mb
20260508203007 61 182 1.7 6.1 0.00 0.00 0.00 54 1021.7
20260508201504 60 301 0.9 7.8 0.00 0.00 0.00 54 1021.8
20260508200004 60 192 0.9 4.3 0.00 0.00 0.00 55 1021.9
20260508194601 59 174 2.6 7.0 0.00 0.00 0.00 58 1022.0
20260508193134 59 294 0.9 6.1 0.00 0.00 0.00 57 1022.1
20260508191558 58 117 0.9 5.2 0.00 0.00 0.00 59 1022.1
20260508190058 57 216 1.7 6.1 0.00 0.00 0.00 61 1022.2
20260508184622 56 300 1.7 4.3 0.00 0.00 0.00 62 1022.3
20260508183057 56 309 3.5 7.0 0.00 0.00 0.00 61 1022.2
20260508181550 55 271 1.7 6.1 0.00 0.00 0.00 63 1022.2
20260508180056 54 188 1.7 6.1 0.00 0.00 0.00 64 1022.1
20260508174603 53 229 1.7 4.3 0.00 0.00 0.00 65 1022.1
20260508173044 54 205 1.7 7.0 0.00 0.00 0.00 64 1021.9
20260508171604 52 192 0.9 4.3 0.00 0.00 0.00 66 1021.8
20260508170041 52 294 2.6 5.2 0.00 0.00 0.00 65 1021.7
20260508164539 51 270 1.7 5.2 0.00 0.00 0.00 65 1021.6
20260508163036 51 234 0.9 5.2 0.00 0.00 0.00 65 1021.5
20260508161540 50 222 0.9 6.1 0.00 0.00 0.00 63 1021.2
20260508160036 50 200 1.7 6.1 0.00 0.00 0.00 63 1020.9
20260508154532 50 127 1.7 6.1 0.00 0.00 0.00 64 1021.2
20260508153037 50 138 0.9 2.6 0.00 0.00 0.00 59 1021.0
20260508151539 48 211 0.0 1.7 0.00 0.00 0.00 53 1021.1
20260508150030 48 211 0.0 1.7 0.00 0.00 0.00 55 1021.1
20260508144529 48 210 0.0 1.7 0.00 0.00 0.00 59 1021.1
20260508143030 48 210 0.0 1.7 0.00 0.00 0.00 59 1021.3
20260508141528 48 209 0.0 1.7 0.00 0.00 0.00 58 1021.1
20260508140027 47 207 0.0 1.7 0.00 0.00 0.00 58 1021.1
20260508134523 47 207 0.0 3.5 0.00 0.00 0.00 58 1020.9
20260508133027 46 206 0.0 5.2 0.00 0.00 0.00 57 1020.6
20260508131519 46 232 0.0 3.5 0.00 0.00 0.00 58 1020.4
20260508130017 46 197 0.9 6.1 0.00 0.00 0.00 58 1020.1
20260508124522 46 191 0.9 4.3 0.00 0.00 0.00 58 1019.9
20260508123015 46 232 0.0 3.5 0.00 0.00 0.00 58 1019.6
20260508121512 46 216 0.0 3.5 0.00 0.00 0.00 58 1019.4
20260508120011 46 270 0.9 4.3 0.00 0.00 0.00 54 1019.3
20260508114510 46 238 0.0 0.9 0.00 0.00 0.00 50 1019.3
20260508113009 46 238 0.0 0.9 0.00 0.00 0.00 42 1019.1
20260508111505 46 238 0.0 0.9 0.00 0.00 0.00 35 1018.8
20260508110003 45 238 0.0 0.0 0.00 0.00 0.00 33 1018.5
20260508104601 45 238 0.0 0.0 0.00 0.00 0.00 34 1018.4
20260508103059 45 238 0.0 0.0 0.00 0.00 0.00 39 1018.3
20260508101557 45 238 0.0 0.0 0.00 0.00 0.00 41 1018.3
20260508100054 46 238 0.0 0.9 0.00 0.00 0.00 41 1018.0
20260508094602 46 238 0.0 0.0 0.00 0.00 0.00 44 1017.9
20260508093049 46 238 0.0 0.9 0.00 0.00 0.00 45 1017.5
20260508091609 46 238 0.0 0.0 0.00 0.00 0.00 48 1017.4
20260508090052 46 238 0.0 0.0 0.00 0.00 0.00 50 1017.5
20260508084543 47 238 0.0 0.0 0.00 0.00 0.00 53 1017.4
20260508083041 47 238 0.0 0.0 0.00 0.00 0.00 55 1017.3
20260508081545 47 238 0.0 0.0 0.00 0.00 0.00 58 1017.1
20260508080041 48 238 0.0 0.0 0.00 0.00 0.00 62 1017.0
20260508074531 49 238 0.0 0.0 0.00 0.00 0.00 63 1017.1
20260508073034 49 238 0.0 0.0 0.00 0.00 0.00 65 1017.0
20260508071531 50 238 0.0 0.9 0.00 0.00 0.00 66 1016.9
20260508070024 50 238 0.0 0.0 0.00 0.00 0.00 68 1016.8
20260508064531 51 238 0.0 0.0 0.00 0.00 0.00 69 1016.8
20260508063023 51 238 0.0 0.9 0.00 0.00 0.00 70 1016.7
20260508061521 52 238 0.0 0.0 0.00 0.00 0.00 71 1016.7
20260508060024 52 238 0.0 0.0 0.00 0.00 0.00 71 1016.7
20260508054521 53 238 0.0 0.0 0.00 0.00 0.00 71 1016.7
20260508053029 54 238 0.0 0.0 0.00 0.00 0.00 70 1016.7
20260508051520 55 238 0.0 0.0 0.00 0.00 0.00 68 1016.7
20260508050021 56 238 0.0 0.0 0.00 0.00 0.00 67 1016.6
20260508044516 57 238 0.0 2.6 0.00 0.00 0.00 65 1016.6
20260508043016 58 212 0.0 2.6 0.00 0.00 0.00 63 1016.6
20260508041519 59 274 0.9 3.5 0.00 0.00 0.00 62 1016.5
20260508040014 60 270 0.0 2.6 0.00 0.00 0.00 61 1016.3
20260508034522 61 265 0.0 2.6 0.00 0.00 0.00 61 1016.1
20260508033023 62 260 0.9 2.6 0.00 0.00 0.00 61 1015.8
20260508031516 63 88 0.0 2.6 0.00 0.00 0.00 59 1015.6
20260508030017 65 89 0.0 1.7 0.00 0.00 0.00 53 1015.5
20260508024520 66 89 0.0 1.7 0.00 0.00 0.00 50 1015.5
20260508023014 66 89 0.0 0.0 0.00 0.00 0.00 46 1015.6
20260508021511 67 89 0.0 0.9 0.00 0.00 0.00 48 1015.5
20260508020011 68 89 0.9 2.6 0.00 0.00 0.00 45 1015.5
20260508014513 69 90 0.0 2.6 0.00 0.00 0.00 44 1015.5
20260508013008 70 91 0.0 2.6 0.00 0.00 0.00 43 1015.7
20260508011506 70 91 0.0 1.7 0.00 0.00 0.00 42 1015.9
20260508010008 70 91 0.0 1.7 0.00 0.00 0.00 42 1015.9
20260508004505 70 92 0.0 5.2 0.00 0.00 0.00 44 1015.9
20260508003004 70 85 0.9 4.3 0.00 0.00 0.00 42 1016.1
20260508001502 70 76 0.9 5.2 0.00 0.00 0.00 42 1016.2
20260508000002 71 117 0.0 2.6 0.00 0.00 0.00 40 1016.2
20260507234559 71 121 0.0 2.6 0.00 0.00 0.00 41 1016.3
20260507233057 71 355 0.0 4.3 0.00 0.00 0.00 45 1016.5
20260507231556 71 300 0.9 3.5 0.00 0.00 0.00 47 1016.7
20260507230107 69 41 0.0 3.5 0.00 0.00 0.00 46 1016.9
20260507224549 69 196 0.9 6.1 0.00 0.00 0.00 46 1017.1
20260507223133 69 330 0.9 4.3 0.00 0.00 0.00 47 1017.3
20260507221545 69 188 0.0 6.1 0.00 0.00 0.00 49 1017.3
20260507220042 68 295 1.7 4.3 0.00 0.00 0.00 51 1017.6
20260507214551 68 76 0.0 5.2 0.00 0.00 0.00 50 1017.7
20260507213038 68 281 0.0 3.5 0.00 0.00 0.00 51 1017.9
20260507211536 67 294 0.9 3.5 0.00 0.00 0.00 54 1018.1
20260507210040 66 45 1.7 6.1 0.00 0.00 0.00 56 1018.3
20260507204533 65 130 0.9 6.1 0.00 0.00 0.00 53 1018.5